Regional Weather Roundup
Issued by NWS San Angelo, TX

Home | Current Version | Previous Version | Text Only | Print | Product List | Glossary On
Versions: 1 2 3 4 5 6 7 8 9 10 11 12 13 14 15 16 17 18 19 20 21 22 23 24 25 26 27 28 29 30 31 32 33 34 35 36 37 38 39 40 41 42 43 44 45 46 47 48 49 50
000
ASUS44 KSJT 251710
RWRSJT
WEST CENTRAL TEXAS REGIONAL WEATHER ROUNDUP
NATIONAL WEATHER SERVICE SAN ANGELO TX
1200 PM CDT TUE APR 25 2017

NOTE: "FAIR" INDICATES FEW OR NO CLOUDS BELOW 12,000 FEET WITH NO
SIGNIFICANT WEATHER AND/OR OBSTRUCTIONS TO VISIBILITY.

TXZ049-054-064>066-071>073-076>078-098-099-113-114-127-128-139-140-
154-155-168>170-251800
...LOCATIONS ACROSS WEST CENTRAL TEXAS...

CITY           SKY/WX    TMP DP  RH WIND       PRES   REMARKS
SAN ANGELO     CLOUDY    87  49  26 SW13      29.58S
ABILENE        SUNNY     87  49  26 SW16      29.53F
DYESS AFB      NOT AVBL
JUNCTION       CLOUDY    82  60  47 SW9G17    29.62F
SWEETWATER     SUNNY     87  41  20 SW23G33   29.57F
BROWNWOOD      SUNNY     81  59  47 S10       29.56F
COLEMAN        CLOUDY    82  58  43 SW12G18   29.57F
SONORA         MOSUNNY   81  57  44 SW10      29.68S
OZONA            N/A     82  48  30 SW15      29.66F
BRADY          NOT AVBL
$$

TEXAS PANHANDLE/OKLAHOMA PANHANDLE

CITY           SKY/WX    TMP DP  RH WIND       PRES   REMARKS
AMARILLO       CLOUDY    69  31  24 W15       29.51F
BORGER         CLOUDY    65  41  41 N15       29.52R
CANADIAN       CLOUDY    71  45  39 NW13      29.45R
DALHART        CLOUDY    56  44  64 N14       29.58R
DUMAS          PTSUNNY   56  44  65 N14       29.57R
GUYMON         NOT AVBL
HEREFORD       CLOUDY    72  32  22 NW18G32   29.53F
PAMPA          CLOUDY    71  35  26 NW15      29.51R
PERRYTON       CLOUDY    60  52  74 N18       29.48R
$$

SOUTHERN PANHANDLE/SOUTH PLAINS/ROLLING PLAINS

CITY           SKY/WX    TMP DP  RH WIND       PRES   REMARKS
LUBBOCK        CLOUDY    80  26  13 W18       29.54S
SNYDER         PTSUNNY  N/A N/A N/A SW20G29   29.55F
CHILDRESS      PTSUNNY   80  38  22 SW15      29.46S
SEMINOLE       CLOUDY    79  32  18 SW26G37   29.60F
$$

PERMIAN BASIN

CITY           SKY/WX    TMP DP  RH WIND       PRES   REMARKS
MIDLAND        MOSUNNY   86  31  13 W28G35    29.60S
ODESSA         PTSUNNY   84  31  14 W24G30    29.61F
WINK           PTSUNNY   85  28  12 W16G29    29.59F
$$

FAR WEST/SOUTHWEST MOUNTAINS/TRANS PECOS

CITY           SKY/WX    TMP DP  RH WIND       PRES   REMARKS
ALPINE         PTSUNNY   78  17  10 SW24G32   29.81S
DRYDEN           N/A     87  33  14 SW18G29   29.63S
EL PASO        MOSUNNY   78  17  10 W33G41    29.69F BLWGDUST
FORT STOCKTON  CLOUDY    86  23  10 SW21G26   29.65S
GUADALUPE PASS SUNNY     73  25  16 SW43G67   29.66F
MARFA          CLOUDY    78  16   9 SW23G31   29.80F
PECOS          SUNNY     87  24  10 SW16G29   29.60S
$$

DALLAS/FORT WORTH METROPLEX

CITY           SKY/WX    TMP DP  RH WIND       PRES   REMARKS
DFW AIRPORT    MOSUNNY   79  64  60 S23G30    29.51F
FTW MEACHAM    SUNNY     81  65  58 S15       29.51F
DAL-EXECUTIVE  SUNNY     76  65  68 S18G31    29.54F
GRAND PRAIRIE  SUNNY     75  61  60 S15G25    29.55F
ADDISON        SUNNY     77  63  61 S15G29    29.54F
MESQUITE       PTSUNNY   75  64  69 S20G29    29.57
LANCASTER      PTSUNNY   75  64  69 S22G28    29.58F
$$

NORTH CENTRAL TEXAS

CITY           SKY/WX    TMP DP  RH WIND       PRES   REMARKS
SHRMAN/DENISON SUNNY     77  62  61 S18G26    29.52F
GAINESVILLE    SUNNY     77  60  56 S21G26    29.52F
BRIDGEPORT     PTSUNNY   81  61  50 S15       29.51F
DENTON         SUNNY     79  63  57 S20G25    29.51F
WAXAHACHIE     SUNNY     75  65  70 S18G26    29.58S
GRANBURY       SUNNY     83  61  47 S15G22    29.54S
$$

WESTERN NORTH TEXAS

CITY           SKY/WX    TMP DP  RH WIND       PRES   REMARKS
WICHITA FALLS  PTSUNNY   85  53  33 SW18      29.43S
VERNON         MOSUNNY   85  40  20 SW14      29.44S
BRECKENRIDGE   CLOUDY    86  53  33 SW14G22   29.50F HAZE
COMANCHE       CLOUDY    80  60  50 SW17G25   29.56S
$$

CENTRAL AND SOUTH CENTRAL TEXAS

CITY           SKY/WX    TMP DP  RH WIND       PRES   REMARKS
AUSTIN/BERGSTM CLOUDY    77  67  71 S15G22    29.64F
WACO           PTSUNNY   76  65  68 S24       29.60F
HILLSBORO      MOSUNNY   75  65  73 S24G32    29.59S
TEMPLE         CLOUDY    73  67  81 S17       29.62F
KILLEEN-GRAY   MOSUNNY   76  64  65 S18G25    29.59F
FORT HOOD      SUNNY     76  64  66 S18       29.58F
GEORGETOWN     CLOUDY    73  63  68 S16G24    29.64F
LAGO VISTA     FAIR      77  65  66 S15G23    29.65F
SAN MARCOS     CLOUDY    75  66  73 S16       29.66F
NEW BRAUNFELS  CLOUDY    77  67  71 S15       29.64F
RANDOLPH AFB   CLOUDY    75  69  81 S12       29.65F
SAN ANTONIO    CLOUDY    74  66  76 S13       29.66F
STINSON        CLOUDY    78  67  68 S8        29.64F
PLEASANTON     NOT AVBL
LA GRANGE      CLOUDY    80  71  75 S15       29.65S
GIDDINGS       CLOUDY    77  67  71 S15G22    29.67F
$$

EAST TEXAS

CITY           SKY/WX    TMP DP  RH WIND       PRES   REMARKS
PARIS          PTSUNNY   73  63  68 S23       29.59F
CLARKSVILLE    NOT AVBL
TYLER          PTSUNNY   75  63  66 S23       29.64F
LONGVIEW       MOSUNNY   77  64  64 S16G25    29.65F
PALESTINE      CLOUDY    74  66  75 S12G18    29.67F
NACOGDOCHES    CLOUDY    77  64  65 S16G25    29.68F
$$

TEXAS HILL COUNTRY AND EDWARDS PLATEAU

CITY           SKY/WX    TMP DP  RH WIND       PRES   REMARKS
LLANO          CLOUDY    81  63  54 S13       29.63F
HORSESHOE BAY  FAIR      79  64  60 S13G18    29.63F
KERRVILLE      CLOUDY    70  66  87 S14G20    29.68S
FREDERICKSBRG  PTSUNNY   72  61  70 SW15G21   29.65F
ROCKSPRINGS    MOSUNNY   75  63  64 S8        29.68F
HONDO            N/A     76  67  73 MISG      29.65F
UVALDE         PTSUNNY   71  64  78 CALM      29.66F
DEL RIO        SUNNY     77  62  59 SE8       29.61F
$$

SOUTHEAST TEXAS

CITY           SKY/WX    TMP DP  RH WIND       PRES   REMARKS
COLLEGE STN    CLOUDY    78  67  68 S14G25    29.67F
CALDWELL       NOT AVBL
CROCKETT       MOSUNNY   75  64  69 S15G21    29.71F
BRENHAM        CLOUDY    80  69  68 S12G17    29.68S
HUNTSVILLE     CLOUDY    77  63  61 S12G20    29.69S
CONROE         CLOUDY    79  65  62 S15       29.69F
HOUSTON BUSH   PTSUNNY   80  66  62 S14G23    29.69F
HOUSTON HOBBY  CLOUDY    79  67  66 S20G28    29.69F
PERLAND        CLOUDY    81  67  62 S15G23    29.71F
WHARTON        CLOUDY    80  66  63 S21G28    29.69F
$$

THE UPPER TEXAS COAST

CITY           SKY/WX    TMP DP  RH WIND       PRES   REMARKS
ORANGE         CLOUDY    76  65  68 S13       29.77S
PORT ARTHUR    CLOUDY    78  65  63 S17G25    29.73F
GALVESTON      MOSUNNY   82  70  66 S20       29.73S
ANGLETON       CLOUDY    82  70  66 S21       29.71S
BAY CITY       CLOUDY    79  71  74 S15G21    29.70F
$$

TEXAS COASTAL BEND, RIO GRANDE PLAINS DEEP SOUTH TEXAS

CITY           SKY/WX    TMP DP  RH WIND       PRES   REMARKS
VICTORIA       CLOUDY    82  69  64 S23G29    29.66F
BEEVILLE       FAIR      85  71  63 S20G25    29.63F
ROCKPORT       CLOUDY    82  71  69 S13G22    29.66S
PORT ARANSAS   SUNNY     80  71  73 S15G21    29.66S
PORT LAVACA    CLOUDY    80  72  77 S17G26    29.69S
CORPUS CHRISTI PTSUNNY   84  71  65 SE24      29.63F
KINGSVILLE NAS MOSUNNY   88  72  58 S17       29.62F
COTULLA        SUNNY     82  66  58 SE8       29.62F
LAREDO         SUNNY     84  68  58 S6        29.63F
BROWNSVILLE    PTSUNNY   86  72  62 S23G31    29.65F
PORT ISABEL    PTSUNNY   88  71  57 S24G37    29.64F HAZE
HEBBRONVILLE   SUNNY     81  67  61 S10G17    29.64F
MCALLEN        SUNNY     89  70  53 SE17G23   29.63F
WESLACO        MOSUNNY   87  71  58 S16G25    29.63F
FALFURRIAS     SUNNY     87  69  53 S17G23    29.62F
EDINBURG       SUNNY     89  69  50 S15G25    29.63F
$$




USA.gov is the U.S. government's official web portal to all federal, state and local government web resources and services.